Buffalo, WY

11:01 AM MDT on August 27, 2016 (GMT -0600)
Johnson County

Weather History for KBYG - November, 2012

Change the Weather History Date:

Tuesday, November 6, 2012

  Actual Average Record
Temperature  
Mean Temperature 46 °F 39 °F  
Max Temperature 57 °F 50 °F 77 °F (2010)
Min Temperature 36 °F 27 °F 7 °F (2003)
Degree Days  
Heating Degree Days 18 26  
Month to date heating degree days 152  
Since 1 July heating degree days 1058  
Cooling Degree Days 0 0  
Month to date cooling degree days 0  
Year to date cooling degree days 492  
Moisture  
Dew Point 31 °F    
Average Humidity 54    
Maximum Humidity 83    
Minimum Humidity 32    
Precipitation  
Precipitation 0.00 in 0.02 in 0.32 in (1998)
Month to date precipitation 0.09  
Year to date precipitation 12.60  
Sea Level Pressure  
Sea Level Pressure 30.13 in    
Wind  
Wind Speed 5 mph (SSW)    
Max Wind Speed 12 mph    
Max Gust Speed -    
Visibility 10 miles    
Events      
T = Trace of Precipitation, MM = Missing Value Source: NWS Daily Summary

Daily Weather History Graph

Daily Weather History Graph

Search for Another Location

Airport or City:

Trip Planner

Search our weather history database for the weather conditions in past years. The results will help you decide how hot, cold, wet, or windy it might be!

Date:

Astronomy

Nov. 06, 2012 Rise Set
Actual Time 6:51 AM MST 4:48 PM MST
Civil Twilight 6:20 AM MST 5:19 PM MST
Nautical Twilight 5:46 AM MST 5:54 PM MST
Astronomical Twilight 5:12 AM MST 6:28 PM MST
Moon 11:34 PM MST (11/6) 12:43 PM MST (11/6)
Length of Visible Light 10h 58m
Length of Day
9h 57m
Waning Gibbous, 52% of the Moon is Illuminated
Nov 6
Waning Gibbous
Nov 6
Last Quarter
Nov 13
New
Nov 20
First Quarter
Nov 28
Full

Hourly Weather History & Observations

Time (MST) Temp. Windchill Dew Point Humidity Pressure Visibility Wind Dir Wind Speed Gust Speed Precip Events Conditions
12:53 AM 41.0 °F 39.0 °F 34.0 °F 76% 30.14 in 10.0 mi NW 3.5 mph - N/A   Clear
1:53 AM 39.0 °F - 33.1 °F 79% 30.14 in 10.0 mi Calm Calm - N/A   Clear
2:53 AM 37.9 °F 35.5 °F 33.1 °F 83% 30.16 in 10.0 mi NW 3.5 mph - N/A   Clear
3:53 AM 36.0 °F 32.1 °F 30.9 °F 82% 30.18 in 10.0 mi WSW 4.6 mph - N/A   Clear
4:53 AM 37.0 °F 34.5 °F 30.9 °F 79% 30.20 in 10.0 mi SW 3.5 mph - N/A   Clear
5:53 AM 41.0 °F 38.0 °F 32.0 °F 70% 30.20 in 10.0 mi South 4.6 mph - N/A   Clear
6:53 AM 39.0 °F 34.8 °F 30.9 °F 73% 30.22 in 10.0 mi WSW 5.8 mph - N/A   Clear
7:53 AM 42.1 °F 39.2 °F 33.1 °F 70% 30.20 in 10.0 mi South 4.6 mph - N/A   Clear
8:53 AM 48.0 °F - 34.0 °F 58% 30.22 in 10.0 mi ESE 3.5 mph - N/A   Clear
9:53 AM 53.1 °F - 35.1 °F 50% 30.18 in 10.0 mi SE 5.8 mph - N/A   Clear
10:53 AM 55.9 °F - 32.0 °F 40% 30.18 in 10.0 mi Variable 4.6 mph - N/A   Clear
11:53 AM 57.0 °F - 32.0 °F 39% 30.16 in 10.0 mi South 10.4 mph - N/A   Clear
12:53 PM 57.9 °F - 32.0 °F 37% 30.14 in 10.0 mi South 11.5 mph - N/A   Clear
1:53 PM 57.0 °F - 32.0 °F 39% 30.13 in 10.0 mi SSE 9.2 mph - N/A   Clear
2:53 PM 57.9 °F - 32.0 °F 37% 30.13 in 10.0 mi SE 9.2 mph - N/A   Clear
3:53 PM 57.0 °F - 32.0 °F 39% 30.13 in 10.0 mi SSE 6.9 mph - N/A   Clear
4:53 PM 51.1 °F - 30.9 °F 46% 30.15 in 10.0 mi South 6.9 mph - N/A   Clear
5:53 PM 48.9 °F - 32.0 °F 52% 30.12 in 10.0 mi South 9.2 mph - N/A   Clear
6:53 PM 48.0 °F - 30.0 °F 50% 30.12 in 10.0 mi SSW 4.6 mph - N/A   Clear
7:53 PM 45.0 °F 40.6 °F 28.9 °F 53% 30.10 in 10.0 mi SSE 8.1 mph - N/A   Clear
8:53 PM 48.0 °F - 27.0 °F 44% 30.06 in 10.0 mi WSW 3.5 mph - N/A   Clear
9:53 PM 55.9 °F - 26.1 °F 32% 30.00 in 10.0 mi WSW 6.9 mph - N/A   Clear
10:53 PM 50.0 °F - 26.1 °F 39% 29.99 in 10.0 mi West 4.6 mph - N/A   Clear
11:53 PM 51.1 °F - 26.1 °F 38% 29.97 in 10.0 mi WSW 6.9 mph - N/A   Clear